Location: Košťálov
(50.5717°N, 15.4040°E)
Time: 08:03:24
(UTC+02:00)

ISS - Visible Passes

Search period start: 30 September 2023 00:00
Search period end: 10 October 2023 00:00
Orbit: 414 x 421 km, 51.6° (Epoch: 29 September)

Date Brightness Start Highest point End Pass type
(mag) Time Alt. Az. Time Alt. Az. Time Alt. Az.
30 Sep -2.2 20:05:52 10° W 20:08:50 29° SSW 20:10:44 17° SSE visible
01 Oct -2.7 19:17:41 10° W 19:20:52 41° SSW 19:24:02 10° SE visible
02 Oct -1.0 20:07:09 10° WSW 20:09:02 14° SW 20:10:55 10° S visible
03 Oct -1.4 19:18:24 10° W 19:21:01 21° SW 19:23:36 10° SSE visible
